Weather History for PHMK - September, 2012

Change the Weather History Date:

Sunday, September 30, 2012

  Actual Average Record
Temperature  
Mean Temperature 74 °F -  
Max Temperature 84 °F 85 °F 89 °F (1958)
Min Temperature 63 °F 70 °F 60 °F (1985)
Cooling Degree Days 8    
Growing Degree Days 24 (Base 50)    
Moisture  
Dew Point 62 °F    
Average Humidity 67    
Maximum Humidity 87    
Minimum Humidity 46    
Precipitation  
Precipitation 0.00 in - - ()
Sea Level Pressure  
Sea Level Pressure 29.99 in    
Wind  
Wind Speed 3 mph (South)    
Max Wind Speed 13 mph    
Max Gust Speed 20 mph    
Visibility 10 miles    
Events      
Averages and records for this station are not official NWS values.
T = Trace of Precipitation, MM = Missing Value Source: NWS Daily Summary

Daily Weather History Graph

Daily Weather History Graph

Search for Another Location

Airport or City:

Trip Planner

Search our weather history database for the weather conditions in past years. The results will help you decide how hot, cold, wet, or windy it might be!

Date:

Astronomy

Sep. 30, 2012 Rise Set
Actual Time 6:19 AM HST 6:16 PM HST
Civil Twilight 5:57 AM HST 6:38 PM HST
Nautical Twilight 5:31 AM HST 7:04 PM HST
Astronomical Twilight 5:05 AM HST 7:30 PM HST
Moon 6:41 PM HST 6:49 AM HST
Length of Visible Light 12h 41m
Length of Day
11h 56m
Waxing Gibbous, 99% of the Moon is Illuminated
Sep 30
Waxing Gibbous
Oct 7
Last Quarter
Oct 15
New
Oct 21
First Quarter
Oct 29
Full

Hourly Weather History & Observations

Time (HST) Temp. Heat Index Dew Point Humidity Pressure Visibility Wind Dir Wind Speed Gust Speed Precip Events Conditions
12:54 AM 69.1 °F - 62.1 °F 78% 30.02 in 10.0 mi Calm Calm - N/A   Mostly Cloudy
1:54 AM 68.0 °F - 62.1 °F 81% 29.99 in 10.0 mi Calm Calm - N/A   Partly Cloudy
2:54 AM 66.9 °F - 61.0 °F 81% 29.98 in 10.0 mi Calm Calm - N/A   Clear
3:54 AM 68.0 °F - 60.1 °F 76% 29.96 in 10.0 mi ENE 3.5 mph - N/A   Clear
4:54 AM 66.0 °F - 59.0 °F 78% 29.98 in 10.0 mi Calm Calm - N/A   Clear
5:54 AM 63.0 °F - 59.0 °F 87% 29.99 in 10.0 mi Calm Calm - N/A   Clear
6:54 AM 69.1 °F - 63.0 °F 81% 30.01 in 10.0 mi Calm Calm - N/A   Clear
7:54 AM 78.1 °F - 63.0 °F 60% 30.02 in 10.0 mi NNW 4.6 mph - N/A   Partly Cloudy
8:54 AM 80.1 °F 81.2 °F 62.1 °F 54% 30.02 in 10.0 mi Calm Calm - N/A   Partly Cloudy
9:54 AM 80.1 °F 81.2 °F 62.1 °F 54% 30.02 in 10.0 mi WNW 8.1 mph - N/A   Scattered Clouds
10:54 AM 80.1 °F 81.5 °F 63.0 °F 56% 30.02 in 10.0 mi West 3.5 mph - N/A   Scattered Clouds
11:54 AM 84.0 °F 84.4 °F 61.0 °F 46% 30.00 in 10.0 mi SSE 9.2 mph - N/A   Scattered Clouds
12:54 PM 82.9 °F 83.7 °F 62.1 °F 49% 29.98 in 10.0 mi South 11.5 mph 16.1 mph N/A   Scattered Clouds
1:54 PM 82.9 °F 83.7 °F 62.1 °F 49% 29.96 in 10.0 mi South 12.7 mph 19.6 mph N/A   Scattered Clouds
2:54 PM 82.9 °F 83.7 °F 62.1 °F 49% 29.95 in 10.0 mi SSE 8.1 mph 16.1 mph N/A   Scattered Clouds
3:54 PM 80.1 °F 81.7 °F 64.0 °F 58% 29.95 in 10.0 mi SSW 5.8 mph - N/A   Scattered Clouds
4:54 PM 78.1 °F - 64.9 °F 64% 29.96 in 10.0 mi South 5.8 mph - N/A   Scattered Clouds
5:54 PM 77.0 °F - 64.9 °F 66% 29.96 in 10.0 mi SSE 5.8 mph - N/A   Scattered Clouds
6:54 PM 77.0 °F - 64.0 °F 64% 29.99 in 10.0 mi ESE 4.6 mph - N/A   Scattered Clouds
7:54 PM 75.9 °F - 64.0 °F 67% 30.01 in 10.0 mi SSE 3.5 mph - N/A   Overcast
8:54 PM 73.9 °F - 64.0 °F 71% 30.02 in 10.0 mi Calm Calm - N/A   Clear
9:54 PM 70.0 °F - 63.0 °F 78% 30.03 in 10.0 mi North 3.5 mph - N/A   Clear
10:54 PM 70.0 °F - 64.0 °F 81% 30.02 in 10.0 mi Calm Calm - N/A   Mostly Cloudy
11:54 PM 69.1 °F - 63.0 °F 81% 30.01 in 10.0 mi Calm Calm - N/A   Mostly Cloudy